PDT,Max TemperatureF,Mean TemperatureF,Min TemperatureF,Max Dew PointF,MeanDew PointF,Min DewpointF,Max Humidity, Mean Humidity, Min Humidity, Max Sea Level PressureIn, Mean Sea Level PressureIn, Min Sea Level PressureIn, Max VisibilityMiles, Mean VisibilityMiles, Min VisibilityMiles, Max Wind SpeedMPH, Mean Wind SpeedMPH, Max Gust SpeedMPH,PrecipitationIn, CloudCover, Events, WindDirDegrees
2013-10-1,61,52,42,36,35,32,76,60,36,30.16,30.11,30.05,10,10,10,12,5,25,0.00,0,,310
2013-10-2,61,49,36,36,33,28,82,60,40,30.16,30.10,30.03,10,10,10,13,5,25,0.00,1,,307
2013-10-3,57,48,39,33,31,30,70,59,38,30.35,30.25,30.14,10,10,10,14,5,25,T,3,,337
2013-10-4,64,48,32,34,30,28,82,55,28,30.45,30.40,30.35,10,10,10,8,3,14,0.00,0,,29
2013-10-5,75,53,30,39,30,25,76,51,22,30.44,30.35,30.27,10,10,10,6,1,9,0.00,0,,57
2013-10-6,73,54,34,34,30,29,76,73,60,30.27,30.25,30.22,10,10,10,4,0,,0.00,0,,60
2013-10-7,64,64,62,33,33,32,32,32,31,30.06,30.06,30.06,10,7,4,4,1,,0.00,0,,-1
2013-10-8,56,48,39,36,33,30,65,55,38,30.11,29.97,29.84,10,10,8,14,7,28,0.01,2,Rain,328
2013-10-9,56,47,38,36,31,28,85,62,35,29.96,29.88,29.79,10,10,9,14,6,28,0.03,3,Rain,337
2013-10-10,65,50,35,34,30,18,76,51,16,30.09,29.98,29.91,10,10,10,10,3,20,0.00,0,,280
2013-10-11,63,47,30,40,34,27,92,68,43,30.17,30.12,30.07,10,10,8,5,0,10,0.00,0,,70
2013-10-12,62,46,30,41,34,27,92,72,36,30.10,30.06,29.97,10,10,10,12,4,23,0.02,4,Rain,333
2013-10-13,60,47,33,36,32,29,85,66,33,30.28,30.16,30.05,10,10,7,9,3,20,0.00,2,,180
2013-10-14,63,46,29,32,30,26,85,63,32,30.38,30.31,30.25,10,10,5,12,2,20,0.00,0,,10
2013-10-15,66,48,29,33,28,23,78,55,28,30.36,30.28,30.20,10,10,8,8,1,12,0.00,0,,357
2013-10-16,67,48,28,32,25,21,75,52,20,30.26,30.22,30.19,10,10,6,3,0,10,0.00,0,,-1
2013-10-17,71,52,32,34,30,26,75,54,23,30.27,30.20,30.14,10,10,9,8,2,15,0.00,0,,353
2013-10-18,73,52,31,35,31,27,78,55,22,30.27,30.21,30.14,10,10,7,8,2,13,0.00,0,,180
2013-10-19,76,55,33,36,30,27,82,51,19,30.27,30.20,30.15,10,10,6,7,1,12,0.00,0,,345
2013-10-20,75,56,37,33,29,25,62,44,19,30.21,30.14,30.08,10,10,10,9,2,16,0.00,0,,46
2013-10-21,76,56,35,35,31,26,70,48,21,30.20,30.13,30.06,10,10,9,7,1,13,0.00,0,,305
2013-10-22,77,56,35,36,30,22,75,48,16,30.19,30.12,30.06,10,10,9,5,0,13,0.00,0,,-1
2013-10-23,78,55,32,32,25,20,63,41,11,30.14,30.08,30.01,10,10,7,7,1,12,0.00,0,,29
2013-10-24,76,56,35,32,27,21,64,43,16,30.17,30.10,30.05,10,10,9,6,1,13,0.00,0,,50
2013-10-25,75,53,31,32,26,21,63,45,17,30.30,30.25,30.17,10,10,10,5,0,9,0.00,0,,290
2013-10-26,74,54,34,30,26,22,59,41,20,30.34,30.24,30.14,10,10,8,8,2,15,0.00,0,,52
2013-10-27,70,52,33,34,29,22,73,56,21,30.11,29.85,29.66,10,10,8,20,5,43,0.04,4,Rain,353
2013-10-28,44,40,36,38,36,33,92,83,76,29.91,29.73,29.65,10,8,4,16,5,31,0.55,8,Rain,342
2013-10-29,49,41,32,36,34,30,92,78,60,30.14,30.02,29.88,10,8,2,5,0,12,0.00,6,,140
2013-10-30,58,44,29,37,32,26,92,74,40,30.27,30.20,30.13,10,8,4,9,1,15,0.00,1,,300
2013-10-31,65,49,33,41,35,30,89,67,36,30.32,30.28,30.24,10,10,6,10,2,20,0.00,0,,339